This is the latest recevied weather packets stored in our database for station/object DK4DAX-2. If no packets are shown the sender has not sent any weather packets the latest 10 day(s).
| Time | Temp. | Humidity | Pressure | Rain* | Wind** | Luminosity | Snow |
|---|---|---|---|---|---|---|---|
| 1777568403 | 20.56° C | 12% | 1017.6 hPa | 0 mm | - | - | - |
| 1777567502 | 20.56° C | 12% | 1017.8 hPa | 0 mm | - | - | - |
| 1777566602 | 20.56° C | 12% | 1017.9 hPa | 0 mm | - | - | - |
| 1777565702 | 20.56° C | 12% | 1017.9 hPa | 0 mm | - | - | - |
| 1777564802 | 21.11° C | 11% | 1017.9 hPa | 0 mm | - | - | - |
| 1777563902 | 21.11° C | 11% | 1017.9 hPa | 0 mm | - | - | - |
| 1777563002 | 20.56° C | 12% | 1018.1 hPa | 0 mm | - | - | - |
| 1777562102 | 21.11° C | 11% | 1018.1 hPa | 0 mm | - | - | - |
| 1777561202 | 21.11° C | 11% | 1018.1 hPa | 0 mm | - | - | - |
| 1777560301 | 21.67° C | 11% | 1018.1 hPa | 0 mm | - | - | - |
| 1777559402 | 21.67° C | 11% | 1018.4 hPa | 0 mm | - | - | - |
| 1777558502 | 22.22° C | 10% | 1018.3 hPa | 0 mm | - | - | - |
| 1777557602 | 23.89° C | 12% | 1018.5 hPa | 0 mm | - | - | - |
| 1777556702 | 25.56° C | 11% | 1018.7 hPa | 0 mm | - | - | - |
| 1777555802 | 27.22° C | 10% | 1018.8 hPa | 0 mm | - | - | - |
| 1777554902 | 27.78° C | 10% | 1018.8 hPa | 0 mm | - | - | - |
| 1777554002 | 27.22° C | 10% | 1018.9 hPa | 0 mm | - | - | - |
| 1777553102 | 27.78° C | 10% | 1019.1 hPa | 0 mm | - | - | - |
| 1777552202 | 26.67° C | 10% | 1019.2 hPa | 0 mm | - | - | - |
| 1777551302 | 26.11° C | 10% | 1019.4 hPa | 0 mm | - | - | - |
| 1777550402 | 26.11° C | 11% | 1019.6 hPa | 0 mm | - | - | - |
| 1777549501 | 26.11° C | 10% | 1019.8 hPa | 0 mm | - | - | - |
| 1777548602 | 25° C | 11% | 1019.7 hPa | 0 mm | - | - | - |
| 1777547702 | 24.44° C | 12% | 1019.9 hPa | 0 mm | - | - | - |
| 1777546803 | 24.44° C | 12% | 1020 hPa | 0 mm | - | - | - |
* Rain latest hour (hover to see other rain measurements)
** Current wind speed in m/s (hover to see current wind gust speed)